Find Starlink 30548

NORAD ID: 58046 Int'l Des: 2023-156 Owner: SPXS Country: US Constellation: starlink operational
LEOCIRCULAR

現在のビュー

3D地球を読み込み中...

About Starlink 30548

Starlink 30548 (NORAD 58046) is a starlink constellation satellite (v2 mini) launched Oct 9, 2023 by SPXS of US. It operates in LEO, CIRCULAR orbit with a mass of 730.00 kg.

Starlink 30548について

説明を読み込み中...

次回通過

Passes for default location (London). Set your location on the main map for personalized predictions.

高度履歴

Loading altitude history...

軌道要素

1 58046U 23156U 26173.34721212 -.00000575 00000-0 -58887-5 0 9991
2 58046 53.1602 40.8417 0001159 91.8491 268.2644 15.34382360151020
Epoch: Jun 22, 2026 • Age: 39 hours

現在のステータス

高度 462.8 km
速度 7.64 km/s
衛星直下点 13.58°N, 139.11°E
打ち上げ日 Oct 9, 2023
運用期間 2.7 years
タイプ internet

技術仕様

分類 Payload
質量 730.00 kg
乾燥質量 700.00 kg
総質量 730.00 kg
長さ 0.30 m
直径 4.10 m
スパン 29.00 m
形状 Box + pan
製造者 SPXS
バスタイプ Starlink V2M
フェーズステータス In Orbit
所有者/国 SPXS/US

Most Searched